| time (UTC) | temp C | wind direction | speed KPH | gust KPH | rain 1hr cm | rain 24hr cm | rain mn cm | humidity % | barometer mb |
| 20260504130713 | 13 | 100 | 3.2 | 9.7 | 0.00 | 0.00 | 0.00 | 57 | 1016.3 |
| 20260504130209 | 13 | 82 | 4.8 | 6.4 | 0.00 | 0.00 | 0.00 | 60 | 1016.4 |
| 20260504120133 | 10 | 156 | 6.4 | 6.4 | 0.00 | 0.00 | 0.00 | 63 | 1016.7 |
| 20260504110600 | 8 | 41 | 1.6 | 1.6 | 0.00 | 0.00 | 0.00 | 64 | 1016.8 |
| 20260504100522 | 7 | 62 | 1.6 | 1.6 | 0.00 | 0.00 | 0.00 | 66 | 1016.6 |
| 20260504081915 | 7 | 80 | 0.0 | 0.0 | 0.00 | 0.00 | 0.00 | 68 | 1016.8 |
| 20260504081412 | 8 | 75 | 0.0 | 0.0 | 0.00 | 0.00 | 0.00 | 64 | 1016.7 |
| 20260504080908 | 8 | 66 | 1.6 | 1.6 | 0.00 | 0.00 | 0.00 | 67 | 1016.7 |
| 20260504080405 | 8 | 71 | 0.0 | 0.0 | 0.00 | 0.00 | 0.00 | 66 | 1016.6 |
| 20260504070333 | 7 | 102 | 1.6 | 1.6 | 0.00 | 0.00 | 0.00 | 71 | 1016.8 |
| 20260504050721 | 7 | 55 | 0.0 | 1.6 | 0.00 | 0.00 | 0.00 | 68 | 1017.0 |
| 20260504050218 | 7 | 56 | 0.0 | 0.0 | 0.00 | 0.00 | 0.00 | 71 | 1017.1 |
| 20260504045715 | 8 | 56 | 0.0 | 1.6 | 0.00 | 0.00 | 0.00 | 69 | 1017.2 |
| 20260504045215 | 8 | 55 | 0.0 | 0.0 | 0.00 | 0.00 | 0.00 | 65 | 1017.1 |
| 20260504044713 | 8 | 79 | 0.0 | 0.0 | 0.00 | 0.00 | 0.00 | 63 | 1017.1 |
| 20260504044210 | 8 | 79 | 0.0 | 1.6 | 0.00 | 0.00 | 0.00 | 65 | 1016.9 |
| 20260504043707 | 8 | 286 | 0.0 | 1.6 | 0.00 | 0.00 | 0.00 | 65 | 1016.9 |
| 20260504043204 | 8 | 286 | 0.0 | 1.6 | 0.00 | 0.00 | 0.00 | 67 | 1017.1 |
| 20260504042702 | 8 | 287 | 1.6 | 3.2 | 0.00 | 0.00 | 0.00 | 65 | 1017.0 |
| 20260504042158 | 8 | 76 | 0.0 | 0.0 | 0.00 | 0.00 | 0.00 | 63 | 1017.1 |
| 20260504041654 | 8 | 50 | 1.6 | 3.2 | 0.00 | 0.00 | 0.00 | 65 | 1017.0 |
| 20260504041150 | 8 | 75 | 0.0 | 1.6 | 0.00 | 0.00 | 0.00 | 57 | 1016.8 |
| 20260504040647 | 7 | 74 | 1.6 | 1.6 | 0.00 | 0.00 | 0.00 | 62 | 1016.9 |
| 20260504040144 | 7 | 81 | 0.0 | 1.6 | 0.00 | 0.00 | 0.00 | 72 | 1017.1 |
| 20260504035641 | 7 | 258 | 3.2 | 3.2 | 0.00 | 0.00 | 0.00 | 73 | 1016.9 |
| 20260504035137 | 8 | 231 | 3.2 | 3.2 | 0.00 | 0.00 | 0.00 | 71 | 1017.0 |
| 20260504034635 | 8 | 275 | 3.2 | 4.8 | 0.00 | 0.00 | 0.00 | 59 | 1017.0 |
| 20260504034132 | 8 | 323 | 0.0 | 0.0 | 0.00 | 0.00 | 0.00 | 58 | 1017.1 |
| 20260504033629 | 8 | 323 | 0.0 | 3.2 | 0.00 | 0.00 | 0.00 | 61 | 1017.0 |
| 20260504033127 | 8 | 322 | 0.0 | 0.0 | 0.00 | 0.00 | 0.00 | 54 | 1016.9 |
| 20260504032624 | 8 | 324 | 0.0 | 1.6 | 0.00 | 0.00 | 0.00 | 56 | 1016.9 |
| 20260504032121 | 8 | 322 | 1.6 | 4.8 | 0.00 | 0.00 | 0.00 | 61 | 1017.0 |
| 20260504031618 | 8 | 51 | 0.0 | 0.0 | 0.00 | 0.00 | 0.00 | 56 | 1017.0 |
| 20260504031114 | 8 | 51 | 0.0 | 1.6 | 0.00 | 0.00 | 0.00 | 58 | 1016.9 |
| 20260504030611 | 7 | 51 | 0.0 | 0.0 | 0.00 | 0.00 | 0.00 | 57 | 1017.0 |
| 20260504030108 | 7 | 51 | 3.2 | 3.2 | 0.00 | 0.00 | 0.00 | 62 | 1016.9 |
| 20260504025604 | 7 | 22 | 0.0 | 3.2 | 0.00 | 0.00 | 0.00 | 64 | 1017.0 |
| 20260504025101 | 8 | 8 | 3.2 | 3.2 | 0.00 | 0.00 | 0.00 | 62 | 1017.2 |
| 20260504024558 | 8 | 79 | 0.0 | 0.0 | 0.00 | 0.00 | 0.00 | 56 | 1017.1 |
| 20260504024055 | 8 | 79 | 1.6 | 1.6 | 0.00 | 0.00 | 0.00 | 53 | 1017.0 |
| 20260504023552 | 8 | 79 | 0.0 | 0.0 | 0.00 | 0.00 | 0.00 | 54 | 1017.0 |
| 20260504023048 | 8 | 79 | 0.0 | 0.0 | 0.00 | 0.00 | 0.00 | 63 | 1017.0 |
| 20260504022543 | 8 | 79 | 0.0 | 1.6 | 0.00 | 0.00 | 0.00 | 53 | 1016.7 |
| 20260504022040 | 8 | 79 | 0.0 | 0.0 | 0.00 | 0.00 | 0.00 | 48 | 1016.9 |
| 20260504021538 | 8 | 79 | 0.0 | 1.6 | 0.00 | 0.00 | 0.00 | 47 | 1017.0 |
| 20260504021034 | 8 | 79 | 1.6 | 1.6 | 0.00 | 0.00 | 0.00 | 50 | 1016.9 |
| 20260504020531 | 8 | 95 | 0.0 | 3.2 | 0.00 | 0.00 | 0.00 | 54 | 1016.8 |
| 20260504020028 | 7 | 352 | 1.6 | 3.2 | 0.00 | 0.00 | 0.00 | 52 | 1016.7 |
| 20260504015524 | 7 | 26 | 1.6 | 1.6 | 0.00 | 0.00 | 0.00 | 56 | 1016.6 |
| 20260504015020 | 7 | 346 | 1.6 | 3.2 | 0.00 | 0.00 | 0.00 | 60 | 1016.5 |
| 20260504014516 | 8 | 1 | 1.6 | 1.6 | 0.00 | 0.00 | 0.00 | 50 | 1016.3 |
| 20260504014014 | 8 | 1 | 0.0 | 0.0 | 0.00 | 0.00 | 0.00 | 48 | 1016.6 |
| 20260504013512 | 8 | 1 | 0.0 | 0.0 | 0.00 | 0.00 | 0.00 | 48 | 1016.5 |
| 20260504013009 | 8 | 1 | 0.0 | 1.6 | 0.00 | 0.00 | 0.00 | 49 | 1016.4 |
| 20260504012506 | 8 | 347 | 1.6 | 3.2 | 0.00 | 0.00 | 0.00 | 50 | 1016.5 |
| 20260504012004 | 7 | 348 | 1.6 | 1.6 | 0.00 | 0.00 | 0.00 | 53 | 1016.2 |
| 20260504011500 | 8 | 349 | 3.2 | 3.2 | 0.00 | 0.00 | 0.00 | 55 | 1016.3 |
| 20260504010955 | 10 | 344 | 0.0 | 3.2 | 0.00 | 0.00 | 0.00 | 49 | 1016.0 |
| 20260504010452 | 10 | 347 | 0.0 | 1.6 | 0.00 | 0.00 | 0.00 | 42 | 1015.9 |
| 20260504005948 | 10 | 347 | 1.6 | 3.2 | 0.00 | 0.00 | 0.00 | 43 | 1015.9 |
| 20260504005445 | 10 | 352 | 0.0 | 1.6 | 0.00 | 0.00 | 0.00 | 39 | 1015.9 |
| 20260504004943 | 10 | 352 | 0.0 | 0.0 | 0.00 | 0.00 | 0.00 | 40 | 1015.7 |
| 20260504004440 | 10 | 353 | 0.0 | 0.0 | 0.00 | 0.00 | 0.00 | 40 | 1015.9 |
| 20260504003937 | 10 | 352 | 0.0 | 0.0 | 0.00 | 0.00 | 0.00 | 40 | 1015.8 |
| 20260504003433 | 11 | 352 | 0.0 | 1.6 | 0.00 | 0.00 | 0.00 | 40 | 1015.8 |
| 20260504002930 | 11 | 353 | 0.0 | 0.0 | 0.00 | 0.00 | 0.00 | 40 | 1015.9 |
| 20260504002427 | 11 | 353 | 0.0 | 0.0 | 0.00 | 0.00 | 0.00 | 40 | 1015.7 |
| 20260504001924 | 11 | 353 | 1.6 | 1.6 | 0.00 | 0.00 | 0.00 | 39 | 1015.7 |
| 20260504001422 | 11 | 0 | 0.0 | 0.0 | 0.00 | 0.00 | 0.00 | 36 | 1015.7 |
| 20260504000918 | 11 | 350 | 1.6 | 1.6 | 0.00 | 0.00 | 0.00 | 37 | 1015.8 |
| 20260504000416 | 12 | 20 | 0.0 | 1.6 | 0.00 | 0.00 | 0.00 | 38 | 1015.7 |
| 20260503235912 | 12 | 14 | 0.0 | 0.0 | 0.00 | 0.00 | 0.00 | 38 | 1015.6 |
| 20260503235410 | 13 | 14 | 0.0 | 1.6 | 0.00 | 0.00 | 0.00 | 35 | 1015.7 |
| 20260503234908 | 14 | 14 | 0.0 | 0.0 | 0.00 | 0.00 | 0.00 | 34 | 1015.6 |
| 20260503234405 | 15 | 14 | 0.0 | 0.0 | 0.00 | 0.00 | 0.00 | 34 | 1015.5 |
| 20260503233903 | 16 | 14 | 0.0 | 0.0 | 0.00 | 0.00 | 0.00 | 35 | 1015.6 |
| 20260503233359 | 16 | 14 | 0.0 | 1.6 | 0.00 | 0.00 | 0.00 | 34 | 1015.5 |
| 20260503232855 | 16 | 14 | 0.0 | 0.0 | 0.00 | 0.00 | 0.00 | 32 | 1015.7 |
| 20260503232353 | 16 | 14 | 0.0 | 0.0 | 0.00 | 0.00 | 0.00 | 32 | 1015.8 |
| 20260503231850 | 16 | 265 | 3.2 | 4.8 | 0.00 | 0.00 | 0.00 | 28 | 1015.6 |
| 20260503231347 | 16 | 335 | 1.6 | 3.2 | 0.00 | 0.00 | 0.00 | 26 | 1015.7 |
| 20260503230843 | 16 | 308 | 3.2 | 3.2 | 0.00 | 0.00 | 0.00 | 27 | 1015.5 |
| 20260503230340 | 16 | 284 | 3.2 | 4.8 | 0.00 | 0.00 | 0.00 | 27 | 1015.6 |
| 20260503225838 | 16 | 267 | 6.4 | 6.4 | 0.00 | 0.00 | 0.00 | 28 | 1015.5 |
| 20260503225334 | 16 | 250 | 4.8 | 9.7 | 0.00 | 0.00 | 0.00 | 30 | 1015.7 |
| 20260503224830 | 17 | 71 | 1.6 | 9.7 | 0.00 | 0.00 | 0.00 | 25 | 1015.5 |
| 20260503224327 | 17 | 88 | 0.0 | 1.6 | 0.00 | 0.00 | 0.00 | 27 | 1015.4 |
| 20260503223825 | 17 | 283 | 3.2 | 6.4 | 0.00 | 0.00 | 0.00 | 26 | 1015.4 |
| 20260503223323 | 17 | 314 | 3.2 | 4.8 | 0.00 | 0.00 | 0.00 | 26 | 1015.5 |
| 20260503222818 | 17 | 88 | 1.6 | 4.8 | 0.00 | 0.00 | 0.00 | 25 | 1015.4 |
| 20260503222317 | 17 | 119 | 3.2 | 6.4 | 0.00 | 0.00 | 0.00 | 25 | 1015.4 |
| 20260503221815 | 17 | 244 | 1.6 | 4.8 | 0.00 | 0.00 | 0.00 | 29 | 1015.2 |
| 20260503221313 | 17 | 304 | 0.0 | 4.8 | 0.00 | 0.00 | 0.00 | 26 | 1015.4 |
| 20260503220809 | 17 | 288 | 6.4 | 6.4 | 0.00 | 0.00 | 0.00 | 26 | 1015.3 |
| 20260503220306 | 17 | 308 | 4.8 | 6.4 | 0.00 | 0.00 | 0.00 | 27 | 1015.3 |
| 20260503215802 | 17 | 302 | 4.8 | 14.5 | 0.00 | 0.00 | 0.00 | 24 | 1015.3 |
| 20260503215259 | 17 | 248 | 4.8 | 6.4 | 0.00 | 0.00 | 0.00 | 29 | 1015.5 |
| 20260503214757 | 17 | 327 | 3.2 | 6.4 | 0.00 | 0.00 | 0.00 | 26 | 1015.4 |
| 20260503214254 | 16 | 57 | 1.6 | 12.9 | 0.00 | 0.00 | 0.00 | 27 | 1015.4 |
| 20260503213752 | 17 | 260 | 8.0 | 16.1 | 0.00 | 0.00 | 0.00 | 25 | 1015.7 |
| 20260503213249 | 17 | 128 | 4.8 | 9.7 | 0.00 | 0.00 | 0.00 | 24 | 1015.6 |
| 20260503212746 | 17 | 287 | 4.8 | 11.3 | 0.00 | 0.00 | 0.00 | 28 | 1015.5 |
| 20260503212244 | 17 | 280 | 11.3 | 12.9 | 0.00 | 0.00 | 0.00 | 27 | 1015.6 |
| 20260503211741 | 17 | 305 | 4.8 | 9.7 | 0.00 | 0.00 | 0.00 | 25 | 1015.7 |
| 20260503211237 | 16 | 74 | 1.6 | 3.2 | 0.00 | 0.00 | 0.00 | 28 | 1015.7 |
| 20260503210732 | 17 | 267 | 14.5 | 17.7 | 0.00 | 0.00 | 0.00 | 25 | 1015.7 |
| 20260503210230 | 17 | 301 | 6.4 | 9.7 | 0.00 | 0.00 | 0.00 | 28 | 1015.5 |
| 20260503205725 | 16 | 284 | 3.2 | 6.4 | 0.00 | 0.00 | 0.00 | 26 | 1015.7 |
| 20260503205222 | 17 | 332 | 11.3 | 16.1 | 0.00 | 0.00 | 0.00 | 26 | 1015.7 |
| 20260503204718 | 16 | 191 | 3.2 | 4.8 | 0.00 | 0.00 | 0.00 | 29 | 1015.7 |
| 20260503204216 | 16 | 273 | 12.9 | 24.1 | 0.00 | 0.00 | 0.00 | 26 | 1015.7 |
| 20260503203713 | 16 | 358 | 6.4 | 9.7 | 0.00 | 0.00 | 0.00 | 25 | 1015.8 |
| 20260503203211 | 16 | 287 | 6.4 | 9.7 | 0.00 | 0.00 | 0.00 | 25 | 1016.0 |
| 20260503202708 | 16 | 277 | 6.4 | 16.1 | 0.00 | 0.00 | 0.00 | 26 | 1015.9 |
| 20260503202206 | 16 | 199 | 11.3 | 14.5 | 0.00 | 0.00 | 0.00 | 30 | 1015.9 |
| 20260503201703 | 16 | 280 | 11.3 | 17.7 | 0.00 | 0.00 | 0.00 | 27 | 1015.9 |
| 20260503201200 | 16 | 294 | 9.7 | 14.5 | 0.00 | 0.00 | 0.00 | 28 | 1016.3 |
| 20260503200656 | 16 | 322 | 12.9 | 25.7 | 0.00 | 0.00 | 0.00 | 27 | 1016.2 |
| 20260503200153 | 17 | 309 | 6.4 | 9.7 | 0.00 | 0.00 | 0.00 | 29 | 1016.4 |
| 20260503195650 | 16 | 331 | 4.8 | 6.4 | 0.00 | 0.00 | 0.00 | 29 | 1016.3 |
| 20260503195147 | 16 | 3 | 1.6 | 3.2 | 0.00 | 0.00 | 0.00 | 25 | 1016.5 |
| 20260503194644 | 16 | 117 | 6.4 | 9.7 | 0.00 | 0.00 | 0.00 | 26 | 1016.5 |
| 20260503194139 | 16 | 292 | 4.8 | 16.1 | 0.00 | 0.00 | 0.00 | 29 | 1016.8 |
| 20260503193637 | 16 | 264 | 12.9 | 20.9 | 0.00 | 0.00 | 0.00 | 28 | 1016.7 |
| 20260503193132 | 16 | 315 | 6.4 | 14.5 | 0.00 | 0.00 | 0.00 | 24 | 1016.6 |
| 20260503192628 | 16 | 44 | 3.2 | 11.3 | 0.00 | 0.00 | 0.00 | 31 | 1016.7 |
| 20260503192124 | 15 | 305 | 9.7 | 17.7 | 0.00 | 0.00 | 0.00 | 28 | 1016.6 |
| 20260503191621 | 15 | 258 | 6.4 | 11.3 | 0.00 | 0.00 | 0.00 | 28 | 1016.8 |
| 20260503191118 | 15 | 247 | 12.9 | 17.7 | 0.00 | 0.00 | 0.00 | 29 | 1016.8 |
| 20260503190615 | 15 | 275 | 8.0 | 12.9 | 0.00 | 0.00 | 0.00 | 29 | 1016.8 |
| 20260503190112 | 15 | 278 | 8.0 | 12.9 | 0.00 | 0.00 | 0.00 | 29 | 1017.1 |
| 20260503185608 | 15 | 304 | 11.3 | 22.5 | 0.00 | 0.00 | 0.00 | 30 | 1017.0 |
| 20260503185108 | 15 | 153 | 3.2 | 11.3 | 0.00 | 0.00 | 0.00 | 30 | 1017.3 |
| 20260503184604 | 15 | 307 | 12.9 | 25.7 | 0.00 | 0.00 | 0.00 | 28 | 1017.2 |
| 20260503184100 | 15 | 264 | 9.7 | 14.5 | 0.00 | 0.00 | 0.00 | 33 | 1017.5 |
| 20260503183557 | 15 | 282 | 11.3 | 17.7 | 0.00 | 0.00 | 0.00 | 30 | 1017.3 |
| 20260503183054 | 15 | 280 | 6.4 | 9.7 | 0.00 | 0.00 | 0.00 | 31 | 1017.5 |
| 20260503182553 | 15 | 270 | 12.9 | 20.9 | 0.00 | 0.00 | 0.00 | 32 | 1017.5 |
| 20260503182050 | 15 | 0 | 3.2 | 12.9 | 0.00 | 0.00 | 0.00 | 29 | 1017.6 |
| 20260503181547 | 15 | 275 | 6.4 | 14.5 | 0.00 | 0.00 | 0.00 | 31 | 1017.6 |
| 20260503181043 | 15 | 285 | 3.2 | 9.7 | 0.00 | 0.00 | 0.00 | 34 | 1017.6 |
| 20260503180541 | 13 | 241 | 6.4 | 12.9 | 0.00 | 0.00 | 0.00 | 33 | 1017.7 |
| 20260503180038 | 14 | 284 | 19.3 | 27.4 | 0.00 | 0.00 | 0.00 | 32 | 1017.6 |
| 20260503175535 | 13 | 263 | 9.7 | 11.3 | 0.00 | 0.00 | 0.00 | 33 | 1017.6 |
| 20260503175033 | 13 | 271 | 9.7 | 14.5 | 0.00 | 0.00 | 0.00 | 31 | 1017.6 |
| 20260503174530 | 14 | 255 | 14.5 | 25.7 | 0.00 | 0.00 | 0.00 | 32 | 1017.7 |
| 20260503174026 | 13 | 304 | 9.7 | 16.1 | 0.00 | 0.00 | 0.00 | 33 | 1017.4 |
| 20260503173521 | 13 | 247 | 12.9 | 17.7 | 0.00 | 0.00 | 0.00 | 32 | 1017.8 |
| 20260503173017 | 13 | 269 | 16.1 | 24.1 | 0.00 | 0.00 | 0.00 | 33 | 1017.5 |
| 20260503172515 | 13 | 218 | 8.0 | 14.5 | 0.00 | 0.00 | 0.00 | 34 | 1017.7 |
| 20260503172012 | 13 | 278 | 8.0 | 11.3 | 0.00 | 0.00 | 0.00 | 34 | 1018.0 |
| 20260503171508 | 13 | 275 | 6.4 | 9.7 | 0.00 | 0.00 | 0.00 | 34 | 1017.8 |
| 20260503171006 | 12 | 254 | 12.9 | 22.5 | 0.00 | 0.00 | 0.00 | 32 | 1017.8 |
| 20260503170502 | 13 | 240 | 14.5 | 24.1 | 0.00 | 0.00 | 0.00 | 33 | 1018.1 |
| 20260503150855 | 10 | 254 | 11.3 | 20.9 | 0.00 | 0.00 | 0.00 | 40 | 1019.4 |
| 20260503150351 | 10 | 257 | 8.0 | 20.9 | 0.00 | 0.00 | 0.00 | 44 | 1019.4 |
| 20260503140315 | 9 | 288 | 6.4 | 12.9 | 0.00 | 0.00 | 0.00 | 42 | 1019.1 |